Normandie — FNNO — position and weather

sailwx.info

Track history (hours):
 
Tides and Currents Weather Stations Pressure Air Temp Water Temp Dewpoint Dewpoint Depression Visibility Wind Speed Wind Dir Waves Ship Positions

Normandie

Operator: Brittany Ferries

Last reported at 2020-Jan-28 18:00 UTC. Time now 2020-Jan-28 20:55 UTC.
Position N 49°50' W 000°31'.

Length 161 m; beam 27 m.

Type: Ship. MMSI: 227273000.

Date/timePositionNaut miles runAvg speedWind from/ knotsBaromVisibWave heightAir tempDewpointWater temp
2020-Jan-28 18:00N 49°50' W 000°31'34 8.5
2020-Jan-28 14:01N 49°17' W 000°15'612.9
2020-Jan-28 13:30N 49°24' W 000°16'19 1.4
2020-Jan-28 00:00N 49°33' W 000°41'2311.5
2020-Jan-27 22:00N 49°17' W 000°15'9013.8
2020-Jan-27 15:31N 50°42' W 001°01'1 0.4
2020-Jan-27 12:30N 50°43' W 001°02'918.7
2020-Jan-27 12:01N 50°35' W 000°57'8213.6
2020-Jan-27 06:01N 49°17' W 000°15'2311.3
2020-Jan-27 04:00N 49°39' W 000°24'7513.5
2020-Jan-26 22:30N 50°49' W 001°06'0 0.0
2020-Jan-26 22:00N 50°49' W 001°06'0 0.0
2020-Jan-26 21:30N 50°49' W 001°06'5314.7
2020-Jan-26 17:56N 49°60' W 000°36'4217.3
2020-Jan-26 15:30N 49°20' W 000°14'3 2.9
2020-Jan-26 14:31N 49°17' W 000°15'0 0.0
2020-Jan-26 14:00N 49°17' W 000°15'2914.7
2020-Jan-26 12:00N 49°46' W 000°28'918.0
2020-Jan-26 11:30N 49°54' W 000°31'46 7.5
2020-Jan-26 05:24N 50°37' W 000°58'4511.6
2020-Jan-26 01:30N 49°54' W 000°35'611.8
2020-Jan-26 01:00N 49°48' W 000°32'2710.9
2020-Jan-25 22:30N 49°23' W 000°16'27 6.8
2020-Jan-25 18:30N 49°49' W 000°30'1018.8
2020-Jan-25 17:59N 49°58' W 000°35'1318.0
2020-Jan-25 17:17N 50°09' W 000°43'4117.9
2020-Jan-25 15:00N 50°47' W 001°07'1 1.0
2020-Jan-25 13:30N 50°49' W 001°06'6 5.9
2020-Jan-25 12:31N 50°43' W 001°03'918.6
2020-Jan-25 12:00N 50°35' W 000°56'7418.4
2020-Jan-25 08:00N 49°26' W 000°17'815.2
2020-Jan-25 07:30N 49°18' W 000°15'24 6.1
2020-Jan-25 03:30N 49°41' W 000°27'6213.9
2020-Jan-24 23:00N 50°40' W 000°60'10 3.8
2020-Jan-24 20:30N 50°49' W 001°06'0 0.0
2020-Jan-24 20:00N 50°49' W 001°06'0 0.0
2020-Jan-24 19:30N 50°49' W 001°06'5414.0
2020-Jan-24 15:40N 49°58' W 000°37'1116.7
2020-Jan-24 15:00N 49°48' W 000°31'1717.2
2020-Jan-24 14:00N 49°32' W 000°22'15 7.4
2020-Jan-24 11:59N 49°17' W 000°15'0 0.0
2020-Jan-24 10:59N 49°17' W 000°15'0 0.0
2020-Jan-24 10:29N 49°17' W 000°15'0 0.0
2020-Jan-24 09:59N 49°17' W 000°15'0 0.0
2020-Jan-24 07:31N 49°17' W 000°15'0 0.0
2020-Jan-24 07:01N 49°17' W 000°15'4011.3
2020-Jan-24 03:29N 49°56' W 000°33'4714.5
2020-Jan-24 00:13N 50°40' W 000°60'913.0
2020-Jan-23 23:30N 50°48' W 001°07'1 0.7
2020-Jan-23 22:00N 50°49' W 001°06'8515.5
2020-Jan-23 16:30N 49°28' W 000°21'1211.6
2020-Jan-23 15:30N 49°17' W 000°15'0 0.0
2020-Jan-23 14:00N 49°17' W 000°15'2416.2
2020-Jan-23 12:30N 49°41' W 000°25'6810.5
2020-Jan-23 06:00N 50°44' W 001°04'814.5
2020-Jan-23 05:28N 50°37' W 000°58'61 5.8
2020-Jan-22 19:00N 49°40' W 000°25'7318.3
2020-Jan-22 15:00N 50°49' W 001°06'3 1.7
2020-Jan-22 13:00N 50°45' W 001°05'7017.5
2020-Jan-22 09:00N 49°40' W 000°25'918.0
2020-Jan-22 08:30N 49°32' W 000°21'9 1.9
2020-Jan-22 04:01N 49°40' W 000°23'917.2
2020-Jan-22 03:30N 49°49' W 000°26'5816.5
2020-Jan-22 00:00N 50°42' W 001°01'3 0.9
2020-Jan-21 20:30N 50°39' W 000°59'7510.0
2020-Jan-21 13:00N 49°28' W 000°19'2818.5
2020-Jan-21 11:30N 49°55' W 000°32'5814.5
2020-Jan-21 07:30N 50°49' W 001°06'0 0.0
2020-Jan-21 07:00N 50°49' W 001°06'3010.0
2020-Jan-21 03:57N 50°21' W 000°46'2811.3
2020-Jan-21 01:30N 49°54' W 000°34'611.4
2020-Jan-21 01:00N 49°49' W 000°31'34 8.4
2020-Jan-20 21:00N 49°17' W 000°15'3112.2
2020-Jan-20 18:30N 49°46' W 000°29'6117.3
2020-Jan-20 15:00N 50°43' W 001°03'6 3.9
2020-Jan-20 13:30N 50°49' W 001°06'1610.4
2020-Jan-20 12:00N 50°34' W 000°56'4618.4
2020-Jan-20 09:31N 49°52' W 000°28'918.6
2020-Jan-20 09:00N 49°43' W 000°24'2613.2
2020-Jan-20 07:01N 49°17' W 000°15'0 0.0
2020-Jan-20 06:00N 49°17' W 000°15'0 0.4
2020-Jan-20 05:30N 49°18' W 000°15'917.3
2020-Jan-20 05:00N 49°26' W 000°17'2215.0
2020-Jan-20 03:30N 49°47' W 000°28'6014.9
2020-Jan-19 23:30N 50°43' W 001°01'6 2.4
2020-Jan-19 21:00N 50°48' W 001°07'7717.2
2020-Jan-19 16:30N 49°36' W 000°22'6 1.7
2020-Jan-19 13:00N 49°30' W 000°20'8218.3
2020-Jan-19 08:31N 50°47' W 001°06'2 0.8
2020-Jan-19 06:30N 50°49' W 001°06'6511.8
2020-Jan-19 01:00N 49°48' W 000°29'510.2
2020-Jan-19 00:30N 49°44' W 000°26'2710.7
2020-Jan-18 22:00N 49°18' W 000°15'1 1.0
2020-Jan-18 21:30N 49°17' W 000°15'0 0.0
2020-Jan-18 20:31N 49°17' W 000°15'1515.5
2020-Jan-18 19:31N 49°32' W 000°23'  
Track history (hours):
 
Tides and Currents Weather Stations Pressure Air Temp Water Temp Dewpoint Dewpoint Depression Visibility Wind Speed Wind Dir Waves Ship Positions

Normandie

Operator: Brittany Ferries

Last reported at 2020-Jan-28 18:00 UTC. Time now 2020-Jan-28 20:55 UTC.
Position N 49°50' W 000°31'.

Length 161 m; beam 27 m.

Type: Ship. MMSI: 227273000.

Date/timePositionNaut miles runAvg speedWind from/ knotsBaromVisibWave heightAir tempDewpointWater temp
2020-Jan-28 18:00N 49°50' W 000°31'34 8.5
2020-Jan-28 14:01N 49°17' W 000°15'612.9
2020-Jan-28 13:30N 49°24' W 000°16'19 1.4
2020-Jan-28 00:00N 49°33' W 000°41'2311.5
2020-Jan-27 22:00N 49°17' W 000°15'9013.8
2020-Jan-27 15:31N 50°42' W 001°01'1 0.4
2020-Jan-27 12:30N 50°43' W 001°02'918.7
2020-Jan-27 12:01N 50°35' W 000°57'8213.6
2020-Jan-27 06:01N 49°17' W 000°15'2311.3
2020-Jan-27 04:00N 49°39' W 000°24'7513.5
2020-Jan-26 22:30N 50°49' W 001°06'0 0.0
2020-Jan-26 22:00N 50°49' W 001°06'0 0.0
2020-Jan-26 21:30N 50°49' W 001°06'5314.7
2020-Jan-26 17:56N 49°60' W 000°36'4217.3
2020-Jan-26 15:30N 49°20' W 000°14'3 2.9
2020-Jan-26 14:31N 49°17' W 000°15'0 0.0
2020-Jan-26 14:00N 49°17' W 000°15'2914.7
2020-Jan-26 12:00N 49°46' W 000°28'918.0
2020-Jan-26 11:30N 49°54' W 000°31'46 7.5
2020-Jan-26 05:24N 50°37' W 000°58'4511.6
2020-Jan-26 01:30N 49°54' W 000°35'611.8
2020-Jan-26 01:00N 49°48' W 000°32'2710.9
2020-Jan-25 22:30N 49°23' W 000°16'27 6.8
2020-Jan-25 18:30N 49°49' W 000°30'1018.8
2020-Jan-25 17:59N 49°58' W 000°35'1318.0
2020-Jan-25 17:17N 50°09' W 000°43'4117.9
2020-Jan-25 15:00N 50°47' W 001°07'1 1.0
2020-Jan-25 13:30N 50°49' W 001°06'6 5.9
2020-Jan-25 12:31N 50°43' W 001°03'918.6
2020-Jan-25 12:00N 50°35' W 000°56'7418.4
2020-Jan-25 08:00N 49°26' W 000°17'815.2
2020-Jan-25 07:30N 49°18' W 000°15'24 6.1
2020-Jan-25 03:30N 49°41' W 000°27'6213.9
2020-Jan-24 23:00N 50°40' W 000°60'10 3.8
2020-Jan-24 20:30N 50°49' W 001°06'0 0.0
2020-Jan-24 20:00N 50°49' W 001°06'0 0.0
2020-Jan-24 19:30N 50°49' W 001°06'5414.0
2020-Jan-24 15:40N 49°58' W 000°37'1116.7
2020-Jan-24 15:00N 49°48' W 000°31'1717.2
2020-Jan-24 14:00N 49°32' W 000°22'15 7.4
2020-Jan-24 11:59N 49°17' W 000°15'0 0.0
2020-Jan-24 10:59N 49°17' W 000°15'0 0.0
2020-Jan-24 10:29N 49°17' W 000°15'0 0.0
2020-Jan-24 09:59N 49°17' W 000°15'0 0.0
2020-Jan-24 07:31N 49°17' W 000°15'0 0.0
2020-Jan-24 07:01N 49°17' W 000°15'4011.3
2020-Jan-24 03:29N 49°56' W 000°33'4714.5
2020-Jan-24 00:13N 50°40' W 000°60'913.0
2020-Jan-23 23:30N 50°48' W 001°07'1 0.7
2020-Jan-23 22:00N 50°49' W 001°06'8515.5
2020-Jan-23 16:30N 49°28' W 000°21'1211.6
2020-Jan-23 15:30N 49°17' W 000°15'0 0.0
2020-Jan-23 14:00N 49°17' W 000°15'2416.2
2020-Jan-23 12:30N 49°41' W 000°25'6810.5
2020-Jan-23 06:00N 50°44' W 001°04'814.5
2020-Jan-23 05:28N 50°37' W 000°58'61 5.8
2020-Jan-22 19:00N 49°40' W 000°25'7318.3
2020-Jan-22 15:00N 50°49' W 001°06'3 1.7
2020-Jan-22 13:00N 50°45' W 001°05'7017.5
2020-Jan-22 09:00N 49°40' W 000°25'918.0
2020-Jan-22 08:30N 49°32' W 000°21'9 1.9
2020-Jan-22 04:01N 49°40' W 000°23'917.2
2020-Jan-22 03:30N 49°49' W 000°26'5816.5
2020-Jan-22 00:00N 50°42' W 001°01'3 0.9
2020-Jan-21 20:30N 50°39' W 000°59'7510.0
2020-Jan-21 13:00N 49°28' W 000°19'2818.5
2020-Jan-21 11:30N 49°55' W 000°32'5814.5
2020-Jan-21 07:30N 50°49' W 001°06'0 0.0
2020-Jan-21 07:00N 50°49' W 001°06'3010.0
2020-Jan-21 03:57N 50°21' W 000°46'2811.3
2020-Jan-21 01:30N 49°54' W 000°34'611.4
2020-Jan-21 01:00N 49°49' W 000°31'34 8.4
2020-Jan-20 21:00N 49°17' W 000°15'3112.2
2020-Jan-20 18:30N 49°46' W 000°29'6117.3
2020-Jan-20 15:00N 50°43' W 001°03'6 3.9
2020-Jan-20 13:30N 50°49' W 001°06'1610.4
2020-Jan-20 12:00N 50°34' W 000°56'4618.4
2020-Jan-20 09:31N 49°52' W 000°28'918.6
2020-Jan-20 09:00N 49°43' W 000°24'2613.2
2020-Jan-20 07:01N 49°17' W 000°15'0 0.0
2020-Jan-20 06:00N 49°17' W 000°15'0 0.4
2020-Jan-20 05:30N 49°18' W 000°15'917.3
2020-Jan-20 05:00N 49°26' W 000°17'2215.0
2020-Jan-20 03:30N 49°47' W 000°28'6014.9
2020-Jan-19 23:30N 50°43' W 001°01'6 2.4
2020-Jan-19 21:00N 50°48' W 001°07'7717.2
2020-Jan-19 16:30N 49°36' W 000°22'6 1.7
2020-Jan-19 13:00N 49°30' W 000°20'8218.3
2020-Jan-19 08:31N 50°47' W 001°06'2 0.8
2020-Jan-19 06:30N 50°49' W 001°06'6511.8
2020-Jan-19 01:00N 49°48' W 000°29'510.2
2020-Jan-19 00:30N 49°44' W 000°26'2710.7
2020-Jan-18 22:00N 49°18' W 000°15'1 1.0
2020-Jan-18 21:30N 49°17' W 000°15'0 0.0
2020-Jan-18 20:31N 49°17' W 000°15'1515.5
2020-Jan-18 19:31N 49°32' W 000°23'  

Dump ship's entire track history